TimeCDT,TemperatureF,Dew PointF,Humidity,Sea Level PressureIn,VisibilityMPH,Wind Direction,Wind SpeedMPH,Gust SpeedMPH,PrecipitationIn,Events,Conditions,WindDirDegrees,DateUTC
12:15 AM,76.1,76.1,100,30.00,10.0,SSW,9.2,-,N/A,,Clear,210,2013-08-27 05:15:00
12:35 AM,75.9,75.9,100,30.00,10.0,SSW,10.4,-,N/A,,Clear,200,2013-08-27 05:35:00
12:55 AM,75.6,75.6,100,30.00,10.0,SSW,10.4,-,N/A,,Clear,200,2013-08-27 05:55:00
1:15 AM,75.4,75.4,100,30.00,10.0,SSW,10.4,-,N/A,,Clear,200,2013-08-27 06:15:00
1:35 AM,75.6,75.6,100,29.99,10.0,SSW,11.5,-,N/A,,Clear,200,2013-08-27 06:35:00
1:55 AM,75.0,75.0,100,29.98,10.0,SSW,9.2,-,N/A,,Clear,200,2013-08-27 06:55:00
2:15 AM,74.7,74.7,100,29.97,10.0,SSW,11.5,-,N/A,,Clear,200,2013-08-27 07:15:00
2:35 AM,74.8,74.8,100,29.96,10.0,SSW,10.4,-,N/A,,Clear,210,2013-08-27 07:35:00
2:55 AM,74.3,74.3,100,29.97,10.0,SSW,10.4,-,N/A,,Clear,210,2013-08-27 07:55:00
3:15 AM,74.3,74.3,100,29.96,10.0,SSW,10.4,-,N/A,,Clear,200,2013-08-27 08:15:00
3:35 AM,73.8,73.8,100,29.96,10.0,SSW,9.2,-,N/A,,Clear,210,2013-08-27 08:35:00
3:55 AM,73.4,73.4,100,29.96,10.0,SSW,8.1,-,N/A,,Clear,210,2013-08-27 08:55:00
4:15 AM,73.8,73.8,100,29.96,10.0,SW,10.4,-,N/A,,Clear,220,2013-08-27 09:15:00
4:35 AM,74.3,74.3,100,29.97,10.0,SW,9.2,-,N/A,,Clear,220,2013-08-27 09:35:00
4:55 AM,74.3,74.3,100,29.97,10.0,SW,9.2,-,N/A,,Clear,230,2013-08-27 09:55:00
5:15 AM,75.2,75.2,100,29.97,10.0,SW,10.4,-,N/A,,Clear,230,2013-08-27 10:15:00
5:35 AM,75.2,75.2,100,29.97,10.0,SW,11.5,-,N/A,,Clear,230,2013-08-27 10:35:00
5:55 AM,75.4,75.4,100,29.98,10.0,SW,12.7,-,N/A,,Clear,220,2013-08-27 10:55:00
6:15 AM,75.2,75.2,100,29.98,10.0,SW,11.5,-,N/A,,Clear,230,2013-08-27 11:15:00
6:35 AM,75.2,75.2,100,29.98,10.0,SW,11.5,-,N/A,,Clear,220,2013-08-27 11:35:00
6:55 AM,74.5,74.5,100,29.98,10.0,SW,10.4,-,N/A,,Clear,220,2013-08-27 11:55:00
7:15 AM,74.3,74.3,100,29.98,10.0,SW,10.4,-,N/A,,Clear,220,2013-08-27 12:15:00
7:35 AM,75.7,75.7,100,29.98,10.0,SW,10.4,-,N/A,,Clear,220,2013-08-27 12:35:00
7:55 AM,77.4,76.1,96,29.97,10.0,SW,12.7,-,N/A,,Clear,220,2013-08-27 12:55:00
8:15 AM,79.0,72.5,80,29.96,10.0,SW,12.7,18.4,N/A,,Clear,220,2013-08-27 13:15:00
8:35 AM,80.6,69.4,69,29.95,10.0,SW,15.0,21.9,N/A,,Clear,220,2013-08-27 13:35:00
8:55 AM,81.5,69.3,66,29.95,10.0,SW,15.0,23.0,N/A,,Clear,230,2013-08-27 13:55:00
9:15 AM,81.7,69.3,66,29.95,10.0,SW,15.0,23.0,N/A,,Clear,230,2013-08-27 14:15:00
9:35 AM,81.7,69.6,67,29.95,10.0,SW,12.7,-,N/A,,Clear,220,2013-08-27 14:35:00
9:55 AM,82.4,69.4,65,29.95,10.0,SW,13.8,-,N/A,,Clear,230,2013-08-27 14:55:00
10:15 AM,84.2,69.4,61,29.94,10.0,SW,16.1,19.6,N/A,,Clear,230,2013-08-27 15:15:00
10:35 AM,85.5,69.4,59,29.94,10.0,SW,17.3,-,N/A,,Clear,230,2013-08-27 15:35:00
10:55 AM,86.2,69.6,58,29.94,10.0,SW,18.4,-,N/A,,Clear,220,2013-08-27 15:55:00
11:15 AM,87.8,69.8,55,29.93,10.0,SW,16.1,-,N/A,,Clear,220,2013-08-27 16:15:00
11:35 AM,88.2,69.6,54,29.93,10.0,SW,17.3,23.0,N/A,,Clear,220,2013-08-27 16:35:00
11:55 AM,89.8,69.6,51,29.93,10.0,SSW,18.4,-,N/A,,Clear,210,2013-08-27 16:55:00
12:15 PM,90.0,69.3,50,29.92,10.0,SW,19.6,23.0,N/A,,Clear,220,2013-08-27 17:15:00
12:35 PM,89.6,69.8,52,29.92,10.0,SW,15.0,21.9,N/A,,Clear,230,2013-08-27 17:35:00
12:55 PM,90.3,69.6,50,29.91,10.0,SW,18.4,21.9,N/A,,Clear,220,2013-08-27 17:55:00
1:15 PM,91.4,69.6,49,29.90,10.0,SW,15.0,20.7,N/A,,Clear,220,2013-08-27 18:15:00
1:35 PM,91.8,70.2,49,29.90,10.0,SSW,18.4,21.9,N/A,,Clear,210,2013-08-27 18:35:00
1:55 PM,91.9,70.0,48,29.89,10.0,SSW,16.1,21.9,N/A,,Clear,210,2013-08-27 18:55:00
2:15 PM,92.5,69.6,47,29.89,10.0,SW,19.6,24.2,N/A,,Clear,220,2013-08-27 19:15:00
2:35 PM,92.7,70.2,48,29.88,10.0,SSW,18.4,23.0,N/A,,Clear,210,2013-08-27 19:35:00
2:55 PM,93.2,69.8,46,29.87,10.0,SW,21.9,25.3,N/A,,Clear,220,2013-08-27 19:55:00
3:15 PM,93.6,70.0,46,29.86,10.0,SSW,20.7,26.5,N/A,,Clear,210,2013-08-27 20:15:00
3:35 PM,93.7,69.1,44,29.86,10.0,SW,19.6,27.6,N/A,,Clear,220,2013-08-27 20:35:00
3:55 PM,93.4,68.7,44,29.86,10.0,SW,19.6,26.5,N/A,,Clear,220,2013-08-27 20:55:00
4:15 PM,93.6,68.9,44,29.85,10.0,SW,23.0,29.9,N/A,,Clear,220,2013-08-27 21:15:00
4:35 PM,93.6,68.7,44,29.85,10.0,SW,20.7,28.8,N/A,,Clear,220,2013-08-27 21:35:00
4:55 PM,93.6,69.3,45,29.85,10.0,SW,18.4,25.3,N/A,,Clear,220,2013-08-27 21:55:00
5:15 PM,93.6,69.1,45,29.85,10.0,SW,23.0,28.8,N/A,,Clear,230,2013-08-27 22:15:00
5:35 PM,92.8,69.1,46,29.85,10.0,SW,18.4,25.3,N/A,,Clear,220,2013-08-27 22:35:00
5:55 PM,92.5,69.4,47,29.85,10.0,SW,18.4,26.5,N/A,,Clear,220,2013-08-27 22:55:00
6:15 PM,91.9,69.8,48,29.85,10.0,SW,17.3,21.9,N/A,,Clear,220,2013-08-27 23:15:00
6:35 PM,91.0,70.2,50,29.85,10.0,SW,16.1,19.6,N/A,,Clear,230,2013-08-27 23:35:00
6:55 PM,89.8,70.5,53,29.85,10.0,SW,15.0,19.6,N/A,,Clear,230,2013-08-27 23:55:00
7:15 PM,88.9,70.3,54,29.86,10.0,SW,10.4,-,N/A,,Clear,230,2013-08-28 00:15:00
7:35 PM,87.8,70.7,57,29.86,10.0,SW,9.2,-,N/A,,Clear,230,2013-08-28 00:35:00
7:55 PM,86.5,70.7,59,29.87,10.0,WSW,8.1,-,N/A,,Clear,240,2013-08-28 00:55:00
8:15 PM,85.3,71.2,63,29.87,10.0,WSW,6.9,-,N/A,,Clear,240,2013-08-28 01:15:00
8:35 PM,85.1,71.1,63,29.88,10.0,WSW,8.1,-,N/A,,Clear,240,2013-08-28 01:35:00
8:55 PM,84.6,71.2,64,29.89,10.0,SW,5.8,-,N/A,,Clear,230,2013-08-28 01:55:00
9:15 PM,83.7,71.2,66,29.89,10.0,SW,5.8,-,N/A,,Clear,220,2013-08-28 02:15:00
9:35 PM,83.3,71.6,68,29.89,10.0,SW,4.6,-,N/A,,Clear,230,2013-08-28 02:35:00
9:55 PM,82.6,71.6,69,29.89,10.0,SW,5.8,-,N/A,,Scattered Clouds,220,2013-08-28 02:55:00
10:15 PM,82.0,71.6,71,29.90,10.0,SW,5.8,-,N/A,,Scattered Clouds,220,2013-08-28 03:15:00
10:35 PM,81.0,72.7,76,29.90,10.0,SW,5.8,-,N/A,,Mostly Cloudy,220,2013-08-28 03:35:00
10:55 PM,79.9,78.6,96,29.90,10.0,SSW,5.8,-,N/A,,Overcast,210,2013-08-28 03:55:00
11:15 PM,79.7,79.5,99,29.89,10.0,SW,8.1,-,N/A,,Mostly Cloudy,220,2013-08-28 04:15:00
11:35 PM,79.5,79.5,100,29.88,10.0,SW,6.9,-,N/A,,Scattered Clouds,220,2013-08-28 04:35:00
11:55 PM,79.7,79.2,98,29.88,10.0,SW,6.9,-,N/A,,Clear,230,2013-08-28 04:55:00